Commit Graph

201 Commits

Author SHA1 Message Date
6c03faf10c feat: enrich question insights classification 2026-07-31 16:40:13 +08:00
99e23b33ec feat: add periodic practice reports 2026-07-31 16:37:25 +08:00
88ed92d78c feat: add admin user detail insights 2026-07-31 16:30:39 +08:00
763c78bd7e feat: expand user growth record view 2026-07-31 16:25:50 +08:00
a84650bb9e feat: add ai cost tracking foundation 2026-07-31 16:24:35 +08:00
ec9f8a015a feat: soften quota messaging 2026-07-31 16:10:35 +08:00
4e872febd5 feat: expose knowledge type priority traces 2026-07-31 16:09:27 +08:00
429636f3e8 feat: add class share drafts 2026-07-31 16:07:18 +08:00
d8fde93b69 feat: add teacher help cards 2026-07-31 15:53:47 +08:00
79094d0832 feat: align agent preview user context 2026-07-31 15:48:40 +08:00
3e60a6da42 feat: add topic summaries and growth profiles 2026-07-31 15:34:03 +08:00
884dc765ad feat: add entitlement plans and topic sessions 2026-07-31 15:22:11 +08:00
ad2161497f feat: add question insight analytics 2026-07-31 11:39:59 +08:00
e426f12e22 fix: highlight full knowledge search terms 2026-07-30 17:14:51 +08:00
1f82b89295 fix: improve chat detail page navigation 2026-07-30 15:32:56 +08:00
918ef5fa79 fix: speed up chat detail pagination 2026-07-30 15:21:26 +08:00
8e2dc1d781 fix: paginate chat detail messages 2026-07-30 15:09:05 +08:00
162658384f fix: deduplicate knowledge content search results 2026-07-30 14:45:20 +08:00
77a899e24c fix: align agent no-hit handling 2026-07-30 14:36:09 +08:00
d1f573108e feat: add knowledge content search 2026-07-30 11:02:04 +08:00
c2655361b5 feat: add agent response depth control 2026-07-20 11:36:18 +08:00
537978082a fix: preserve agent debug conversation context 2026-07-17 16:06:43 +08:00
cadf44e0b8 fix: allow direct knowledge deletion 2026-07-17 15:34:23 +08:00
821cb26930 feat: enforce knowledge type source hierarchy 2026-07-17 15:14:18 +08:00
d647a3d44b feat: apply knowledge type retrieval priority 2026-07-17 15:12:34 +08:00
9173267e09 fix(chat): refine markdown typography 2026-07-17 14:33:26 +08:00
c7bafda135 feat(agent): add debug output switches 2026-07-17 14:19:23 +08:00
a879dc2ff1 feat(agent): control reasoning visibility 2026-07-17 14:05:54 +08:00
bfaf2ebf67 feat(agent): stream admin debug preview 2026-07-17 13:47:05 +08:00
13fed0467a feat(chat): add configurable streaming output 2026-07-17 13:34:27 +08:00
f7076569a7 feat(knowledge): add batch synchronization 2026-07-17 13:20:41 +08:00
dde28aba83 fix(rag): route exercise titles to knowledge base 2026-07-17 12:31:56 +08:00
6f07c70f1f fix(rag): keep practice headings with details 2026-07-17 12:16:30 +08:00
e3634eb26c refactor(knowledge): keep latest version only 2026-07-16 18:24:49 +08:00
9ba8fb6e0c feat(knowledge): auto-publish successful syncs 2026-07-16 18:07:17 +08:00
921b56cfb9 fix(agent): keep response policy in managed prompt 2026-07-16 17:16:51 +08:00
1b5fcc4d52 fix(agent): enforce complete homework answers 2026-07-16 17:03:04 +08:00
6c02662d3b feat(agent): persist production generation settings 2026-07-16 16:07:11 +08:00
245b6b3eca fix(rag): recall complete course homework lists 2026-07-16 15:48:40 +08:00
cbbdb41b80 fix(admin): restore knowledge preview scrolling 2026-07-16 14:19:33 +08:00
c3f24d0ccd feat(admin): add knowledge content preview 2026-07-16 10:39:46 +08:00
56c9f2f359 fix(rag): retrieve complete course assignments 2026-07-15 22:09:52 +08:00
ba1840233c refactor(chat): simplify thinking status text 2026-07-13 20:18:42 +08:00
e4a391aa08 fix(agent): serialize retrieval trace responses 2026-07-13 19:37:12 +08:00
128d444a76 fix(admin): correct login page copyright 2026-07-13 17:32:39 +08:00
653317ca7d feat(admin): redesign branded login page 2026-07-13 17:28:27 +08:00
971440ebff fix: 修复添加学员启用开关布局 2026-07-13 16:05:28 +08:00
bbd19cf9ed fix: 修复会话上下文记忆链路 2026-07-13 15:43:29 +08:00
dda2e040ca feat: explain agent generation parameters 2026-07-13 15:17:09 +08:00
a8bb8b068c fix: show agent generation parameters directly 2026-07-13 14:47:56 +08:00